[[{"header":{"parameterUnit":"m.s-1","parameterCategory":1,"la1":30.2991,"la2":30.254,"lo1":-89.0895,"lo2":-89.0444,"dy":0.0017,"dx":0.0017,"nx":28,"ny":28,"refTime":"2025-03-10T21:00:00:Z","depth":0,"parameterNumber":2,"parameterNumberName":"U-component_of_WINDS"},"data":[0,0,0,0,0,0,0,0,0,0,0,0,0,0,0,0,0,0,0,0,0,0,0,0,0,0,0,0,0,0,0,0,0,0,0,0,0,0,0,0,0,0,0,0,0,0,0,0,0,0,0,0,0,0,0,0,0,0,4.5328,4.5329,0,4.547,4.5472,4.5473,4.5418,4.5415,4.5411,4.5408,4.5556,4.5563,4.557,0,0,0,0,0,0,0,0,0,0,0,0,0,4.5007,4.5014,4.5328,4.5329,4.5331,4.547,4.5472,4.5474,4.5419,4.5415,4.541,4.5407,4.5554,4.5562,4.5571,0,0,0,0,0,0,0,0,0,0,0,0,0,4.5148,4.5016,4.5327,4.532,4.5321,4.547,4.5472,4.5474,4.5419,4.5414,4.5409,4.5405,4.5551,4.5561,4.5572,4.5736,0,0,4.5604,4.5609,0,0,0,0,0,0,0,0,4.514,4.516,4.5319,4.5321,4.5322,4.5421,4.5413,4.5562,4.5421,4.5382,4.5408,4.5402,4.5515,4.5529,4.5566,4.5743,4.575,4.5605,4.5611,4.5616,4.5619,0,0,0,0,0,0,0,4.513,4.5153,4.5384,4.5322,4.5324,4.531,4.5324,4.5441,4.5475,4.5385,4.5381,4.5399,4.5515,4.5556,4.5569,4.5752,4.5605,4.5614,4.5621,4.5625,4.6067,4.6072,0,0,0,0,0,0,4.512,4.5146,4.5379,4.5388,4.5217,4.532,4.5336,4.5394,4.5474,4.5481,4.5403,4.5396,4.5541,4.5557,4.5574,4.5769,4.5616,4.5626,4.5632,4.6062,4.6068,4.6074,0,0,0,0,0,0,4.5113,4.5142,4.5374,4.5266,4.5294,4.5331,4.5397,4.54,4.5441,4.5487,4.5493,4.5439,4.5537,4.556,4.5695,4.5774,4.563,4.564,4.6055,4.6064,4.6071,4.6162,0,0,0,0,0,0,4.5104,4.5139,4.5202,4.5268,4.53,4.5493,4.5402,4.5406,4.5459,4.5451,4.5522,4.5529,4.5535,4.568,4.5706,4.5786,4.5648,4.6049,4.6059,4.6069,4.6152,4.6172,4.6189,0,0,0,0,0,4.5093,4.5224,4.5206,4.5234,4.538,4.5497,4.5516,4.552,4.5466,4.5529,4.5558,4.5527,4.5761,4.5694,4.5723,4.5807,4.6044,4.6056,4.6068,4.6144,4.6168,4.6189,0,0,0,0,0,0,4.5168,4.5232,4.5213,4.5369,4.5428,4.5488,4.5568,4.5546,4.5623,4.5612,4.5614,4.5631,4.577,4.5803,4.5727,4.5969,4.5894,4.5913,4.5942,4.5966,4.5984,4.5972,4.5657,0,0,0,0,0,4.5202,4.5292,4.5343,4.5475,4.5506,4.5532,4.5583,4.5581,4.5643,4.5668,4.5707,4.5768,4.5855,4.5913,4.5996,4.6157,4.617,4.6229,4.6248,4.6263,4.6278,4.6362,4.6388,4.6114,4.6114,4.6114,0,0,4.5274,4.532,4.5377,4.5491,4.5537,4.5629,4.5553,4.5655,4.5723,4.5683,4.5812,4.5844,4.5912,4.6061,4.6128,4.6092,4.6357,4.6278,4.629,4.6297,4.6378,4.6403,4.6426,4.6123,4.6121,4.612,0,0,4.5451,4.5497,4.561,4.5657,4.5726,4.5742,4.5769,4.5833,4.5851,4.5981,4.5952,4.6034,4.6185,4.6233,4.6278,4.6472,4.6445,4.65,4.6596,4.6678,4.67,4.6719,4.6785,4.6809,4.6515,4.6515,4.6516,0,4.5532,4.567,4.5671,4.5774,4.5824,4.5791,4.5905,4.5951,4.6044,4.6079,4.6038,4.6224,4.6269,4.6426,4.6473,4.6512,4.6541,4.649,4.6697,4.6716,4.6734,4.6796,4.6822,4.6521,4.6521,4.652,4.6519,0,4.5764,4.586,4.5943,4.6032,4.6092,4.62,4.6217,4.6278,4.627,4.629,4.6422,4.6473,4.6564,4.6602,4.6597,4.6759,4.6734,4.6695,4.662,4.6765,4.6824,4.6849,4.653,4.6528,4.6526,4.6524,0,0,4.5992,4.6079,4.6109,4.6148,4.6221,4.6295,4.6401,4.6489,4.654,4.6606,4.6693,4.6821,4.6784,4.6834,4.6834,4.6907,4.7053,4.6858,4.686,4.689,4.7231,4.7257,4.7286,4.7037,4.7041,4.7045,4.7224,0,4.6172,4.6357,4.6361,4.653,4.6617,4.6586,4.6678,4.6733,4.6755,4.6832,4.6856,4.6945,4.6892,4.6921,4.6992,4.702,4.7121,4.7008,4.7116,4.712,4.7097,4.7317,4.7346,4.7513,4.7247,4.7251,4.7254,0,4.6408,4.6478,4.6656,4.6714,4.6751,4.6833,4.6913,4.6987,4.7048,4.7059,4.7114,4.7103,4.721,4.7133,4.7279,4.7202,4.7246,4.7267,4.7273,4.7281,4.7194,4.7328,4.7566,4.759,4.7291,4.7288,4.7286,0,4.6551,4.6692,4.6815,4.685,4.6922,4.698,4.7013,4.7069,4.7121,4.7191,4.7224,4.7306,4.7351,4.7414,4.7424,4.7368,4.757,4.7495,4.758,4.758,4.7622,4.7619,4.7868,4.7657,4.7656,4.7656,4.7655,0,4.6751,4.686,4.688,4.6956,4.7076,4.708,4.7199,4.7227,4.7277,4.7357,4.7337,4.7413,4.7423,4.7501,4.751,4.7627,4.7649,4.7659,4.7659,4.7659,4.7657,4.7686,4.7674,4.7662,4.7661,4.766,4.7658,0,4.6931,4.695,4.7081,4.7138,4.7155,4.7241,4.7289,4.7361,4.738,4.7482,4.7506,4.7536,4.7626,4.7643,4.7751,4.7757,4.7896,4.7887,4.7875,4.7873,4.7956,4.7946,4.823,4.8265,4.8034,4.8036,4.8038,0,4.7056,4.7138,4.7203,4.7255,4.729,4.7374,4.7426,4.7432,4.7487,4.7562,4.7624,4.7712,4.7783,4.7928,4.796,4.8041,4.8031,4.8125,4.8044,4.8039,4.8029,4.8022,4.8029,4.814,4.8142,4.8144,4.8146,0,4.7273,4.7278,4.7353,4.7432,4.7494,4.7557,4.7616,4.766,4.7674,4.7736,4.7828,4.7882,4.7991,4.8077,4.8158,4.8191,4.8171,4.8172,4.8195,4.8194,4.8182,4.8186,4.7914,4.8165,4.8163,4.8161,4.816,4.816,4.7427,4.7498,4.7554,4.7638,4.7683,4.7738,4.7807,4.7834,4.7911,4.7998,4.7998,4.8097,4.8154,4.826,4.8299,4.8376,4.8346,4.8381,4.8389,4.8397,4.8403,4.8172,4.8391,4.8391,4.839,4.839,4.8389,0,4.7641,4.7675,4.7752,4.7834,4.79,4.7875,4.7939,4.7995,4.8083,4.8138,4.8207,4.831,4.8394,4.8432,4.8514,4.8568,4.856,4.8589,4.8583,4.8591,4.8427,4.8396,4.8594,4.8594,4.8594,4.8594,4.8593,4.8593,4.7759,4.7876,4.7887,4.8026,4.806,4.8156,4.8194,4.8244,4.8287,4.8403,4.8472,4.8496,4.8543,4.8628,4.8703,4.8712,4.8742,4.8774,4.8779,4.8624,4.8603,4.8583,4.8554,4.8782,4.8782,4.8936,4.8937,4.8938]},{"header":{"parameterUnit":"m.s-1","parameterCategory":1,"la1":30.2991,"la2":30.254,"lo1":-89.0895,"lo2":-89.0444,"dy":0.0017,"dx":0.0017,"nx":28,"ny":28,"refTime":"2025-03-10T21:00:00:Z","depth":0,"parameterNumber":3,"parameterNumberName":"V-component_of_WINDS"},"data":[0,0,0,0,0,0,0,0,0,0,0,0,0,0,0,0,0,0,0,0,0,0,0,0,0,0,0,0,0,0,0,0,0,0,0,0,0,0,0,0,0,0,0,0,0,0,0,0,0,0,0,0,0,0,0,0,0,0,3.3978,3.398,0,3.4116,3.4117,3.4119,3.4129,3.4127,3.4126,3.4124,3.4262,3.4267,3.4272,0,0,0,0,0,0,0,0,0,0,0,0,0,3.3719,3.3724,3.3978,3.398,3.3982,3.4116,3.4118,3.4119,3.4129,3.4127,3.4125,3.4123,3.426,3.4266,3.4272,0,0,0,0,0,0,0,0,0,0,0,0,0,3.3841,3.3725,3.3978,3.4003,3.4006,3.4115,3.4118,3.412,3.4129,3.4127,3.4125,3.4123,3.4258,3.4266,3.4273,3.4366,0,0,3.4297,3.43,0,0,0,0,0,0,0,0,3.3835,3.3851,3.3997,3.4001,3.4005,3.4103,3.4077,3.4202,3.413,3.4082,3.4124,3.4121,3.4211,3.4222,3.4253,3.4373,3.4378,3.4297,3.4302,3.4305,3.4307,0,0,0,0,0,0,0,3.3826,3.3845,3.4032,3.3999,3.4004,3.4005,3.402,3.4101,3.4158,3.4086,3.4087,3.4104,3.4212,3.4245,3.4256,3.4381,3.4297,3.4304,3.4309,3.4311,3.4581,3.4583,0,0,0,0,0,0,3.3813,3.3838,3.4028,3.4037,3.3913,3.4012,3.4028,3.4074,3.4157,3.4167,3.4106,3.4104,3.4233,3.4247,3.4261,3.4374,3.4305,3.4312,3.4317,3.4578,3.4582,3.4584,0,0,0,0,0,0,3.3808,3.383,3.4023,3.3938,3.3962,3.4019,3.4069,3.4078,3.4111,3.4171,3.4181,3.4129,3.4232,3.425,3.434,3.4379,3.4316,3.4323,3.4575,3.4579,3.4583,3.4601,0,0,0,0,0,0,3.38,3.3828,3.3865,3.3938,3.3967,3.4101,3.4072,3.4082,3.4124,3.4123,3.4196,3.4206,3.4232,3.4328,3.4347,3.4388,3.4329,3.4572,3.4577,3.4582,3.4598,3.4606,3.4612,0,0,0,0,0,3.3791,3.3865,3.3867,3.389,3.4015,3.4103,3.4119,3.4148,3.4128,3.4164,3.4203,3.4204,3.4371,3.4337,3.4359,3.4403,3.457,3.4576,3.4581,3.4594,3.4604,3.4612,0,0,0,0,0,0,3.3794,3.3875,3.3878,3.3978,3.4034,3.4104,3.4152,3.4158,3.4219,3.4216,3.4248,3.4264,3.4352,3.4387,3.4347,3.4496,3.4468,3.4478,3.4471,3.448,3.4487,3.4477,3.4335,0,0,0,0,0,3.3806,3.3873,3.3939,3.4021,3.4048,3.4095,3.4135,3.4153,3.4211,3.4234,3.4279,3.4334,3.4399,3.4442,3.4505,3.4602,3.4617,3.4643,3.465,3.4656,3.4664,3.4716,3.4728,3.4603,3.4603,3.4603,0,0,3.3833,3.3885,3.3925,3.4023,3.4068,3.4134,3.4115,3.4186,3.4235,3.4244,3.4332,3.4366,3.443,3.4524,3.4567,3.4555,3.4702,3.4663,3.4667,3.4673,3.4724,3.4735,3.4746,3.4607,3.4607,3.4606,0,0,3.3914,3.3961,3.4034,3.4079,3.4147,3.4178,3.4195,3.4265,3.4288,3.4376,3.4384,3.4442,3.4554,3.4598,3.4636,3.4732,3.4734,3.4751,3.479,3.484,3.485,3.4859,3.4892,3.4903,3.476,3.476,3.476,0,3.3938,3.4039,3.407,3.4141,3.4183,3.4195,3.4267,3.4309,3.4394,3.4422,3.4408,3.4547,3.4591,3.4694,3.4717,3.4748,3.4767,3.4744,3.4846,3.4855,3.4864,3.4896,3.4908,3.4761,3.4761,3.4761,3.4761,0,3.4064,3.4134,3.4184,3.4267,3.4314,3.4386,3.4425,3.447,3.4483,3.4514,3.4602,3.4655,3.4728,3.4754,3.4767,3.4859,3.4849,3.484,3.4812,3.4877,3.4907,3.492,3.4764,3.4763,3.4763,3.4762,0,0,3.4153,3.425,3.4268,3.4305,3.438,3.4434,3.4505,3.4578,3.4614,3.4672,3.4731,3.4825,3.4816,3.4859,3.4877,3.4921,3.4992,3.4906,3.4908,3.4919,3.5094,3.5099,3.5113,3.4994,3.4996,3.4998,3.5088,0,3.4242,3.437,3.4398,3.4508,3.4572,3.4583,3.4644,3.4696,3.4727,3.4784,3.4817,3.4883,3.4868,3.4893,3.4937,3.4974,3.5027,3.4968,3.5047,3.505,3.5031,3.5129,3.5136,3.5219,3.51,3.5102,3.5104,0,3.4364,3.4425,3.4541,3.4606,3.4634,3.4689,3.4757,3.4812,3.487,3.4889,3.4936,3.4949,3.5021,3.499,3.5088,3.5047,3.5081,3.5104,3.5108,3.5116,3.508,3.5139,3.5246,3.5258,3.5123,3.5121,3.512,0,3.4415,3.4526,3.4609,3.4641,3.472,3.4757,3.4792,3.4848,3.4889,3.4948,3.4974,3.504,3.5076,3.5126,3.5155,3.5131,3.5251,3.5223,3.5268,3.5267,3.5293,3.5291,3.5405,3.5315,3.5315,3.5315,3.5315,0,3.4512,3.4582,3.4633,3.4685,3.4763,3.4794,3.487,3.4904,3.4953,3.501,3.5023,3.5076,3.5112,3.5169,3.5192,3.5269,3.5286,3.5302,3.5307,3.53,3.5298,3.5323,3.5318,3.5318,3.5317,3.5317,3.5316,0,3.4582,3.462,3.4711,3.4778,3.4797,3.4851,3.4908,3.4957,3.4987,3.5058,3.5077,3.5124,3.5191,3.5226,3.531,3.5326,3.5412,3.5414,3.5393,3.5395,3.5437,3.5432,3.5571,3.559,3.5488,3.5489,3.549,0,3.4641,3.4696,3.4768,3.4807,3.4843,3.4906,3.4948,3.498,3.5023,3.5092,3.5132,3.5201,3.5257,3.5364,3.5405,3.5469,3.5472,3.5516,3.5482,3.5473,3.5471,3.5467,3.5472,3.5522,3.5523,3.5524,3.5525,0,3.4741,3.4757,3.4818,3.4885,3.4935,3.4989,3.5042,3.5073,3.5113,3.516,3.523,3.5274,3.5359,3.5426,3.5493,3.5526,3.5532,3.5535,3.5548,3.5542,3.5527,3.5535,3.5409,3.5532,3.5531,3.553,3.553,3.553,3.4808,3.4856,3.4914,3.4981,3.5024,3.5073,3.5122,3.5158,3.5217,3.529,3.5305,3.5378,3.5433,3.5523,3.5558,3.5615,3.5605,3.5625,3.563,3.5634,3.5635,3.5518,3.5627,3.5627,3.5627,3.5626,3.5626,0,3.4907,3.4945,3.5006,3.508,3.5132,3.5133,3.5192,3.5235,3.5299,3.535,3.5406,3.5485,3.5549,3.5595,3.566,3.5696,3.57,3.5712,3.5709,3.5717,3.5641,3.5622,3.5708,3.5708,3.5708,3.5708,3.5708,3.5708,3.4965,3.5046,3.5068,3.517,3.5207,3.528,3.5313,3.5357,3.5398,3.5486,3.554,3.557,3.5618,3.5686,3.5745,3.5757,3.5779,3.5791,3.5802,3.5731,3.5722,3.5714,3.5697,3.5796,3.5796,3.5874,3.5874,3.5875]}]]